Content
SEND FEEDBACK

Daily
Averages
Monthly
Summary
United States of America

GREENFIELD, MASSACHUSETTS


Home > North America > United States > Massachusetts
Elevation: 58 meters     Latitude: 42 37N     Longitude: 072 33W

WEATHER
 
SELECT A DAY
Number of Records: 212,494;   Date Range: 7/1/96 - 8/12/14
 
SHARE

PRINT THIS DATA

[ ← Previous Day ]
WEATHER ALMANAC - 6 DECEMBER, 2013
[ Next Day → ]
[ °F ]   °C
Weather ElementAverageHighLow
Temperature6.6 °C11.1 °C (12:28 am)0 °C (10:31 pm)
Dewpoint5.2 °C11.1 °C (1:52 am)-0.6 °C (10:41 pm)
Humidity91.9 %100 % (1:47 am)70 % (4:52 pm)
Barometer1015.6 hPa1021.3 hPa (8:52 pm)1010.8 hPa (2:32 am)
Wind Speed9.7 km/h20.4 km/h (5:02 am)
Weather ElementAverage
Visibility9.2 km
Wind DirectionSW (225.1 °)

Weather ElementTotal
Precipitation19.05 mm
Heating Degree Days12.8 (Base 18.3)
Averaged from 55 records on 6 December, 2013
WEATHER CONDITIONS BREAKOUT
WIND DIRECTION BREAKOUT
WEATHER BY HOUR - 6 DECEMBER, 2013
[ °F ]   °C
Local TimeTemperatureDewpointHumidityBarometerVisibilityWind DirectionWind SpeedGust SpeedPrecipitationEventsConditions
12:28 AM11.1 °C10.6 °C97 %1012.5 hPa8 kmSouth (180°)13 km/hOvercast
12:52 AM11.1 °C10.6 °C97 %1012.9 hPa6.4 kmSSE (160°)11.1 km/hOvercast
1:16 AM11.1 °C10.6 °C97 %1011.9 hPa6.4 kmSouth (180°)9.3 km/hOvercast
1:30 AM11.1 °C10.6 °C97 %1012.2 hPa4 kmSouth (190°)13 km/hOvercast
1:39 AM11.1 °C10.6 °C97 %1012.2 hPa3.2 kmSouth (180°)14.8 km/hOvercast
1:47 AM11 °C11 °C100 %1012.5 hPa2.9 kmSouth (180°)14.8 km/hOvercast
1:52 AM11.1 °C11.1 °C100 %1012.9 hPa2.9 kmSouth (180°)13 km/hOvercast
2:20 AM11.1 °C10.6 °C97 %1011.2 hPa1.6 kmSSE (160°)11.1 km/hOvercast
2:32 AM11.1 °C11.1 °C100 %1010.8 hPa1.9 kmSouth (170°)11.1 km/hOvercast
2:45 AM11.1 °C10.6 °C97 %1011.5 hPa1.6 kmSSW (200°)13 km/hOvercast
2:52 AM11.1 °C10.6 °C97 %1011.9 hPa1.3 kmSouth (190°)14.8 km/hOvercast
3:52 AM11.1 °C11.1 °C100 %1011.2 hPa0.8 kmSSE (150°)13 km/hFogFog
4:52 AM10 °C9.4 °C96 %1012.2 hPa0.8 kmNW (320°)9.3 km/h0.25 mmFog-RainLight Rain
5:02 AM10 °C10 °C100 %1012.2 hPa1.9 kmWNW (290°)20.4 km/h0 mmRainLight Rain
5:04 AM10 °C10 °C100 %1012.2 hPa3.2 kmWNW (290°)16.7 km/h0 mmRainLight Rain
5:11 AM10 °C9.4 °C96 %1012.5 hPa8 kmWNW (290°)18.5 km/h0 mmRainLight Rain
5:18 AM10 °C9.4 °C96 %1012.5 hPa11.3 kmWNW (300°)14.8 km/h0 mmRainLight Rain
5:27 AM9.4 °C8.9 °C97 %1012.5 hPa16.1 kmNW (310°)13 km/h0 mmRainLight Rain
5:52 AM8.9 °C7.8 °C93 %1013.5 hPa16.1 kmNW (320°)13 km/h0.25 mmOvercast
6:15 AM8.3 °C7.2 °C93 %1013.2 hPa16.1 kmNNW (330°)13 km/hOvercast
6:52 AM8.3 °C7.2 °C93 %1013.9 hPa16.1 kmCalmOvercast
7:41 AM8.3 °C6.7 °C90 %1014.9 hPa16.1 kmWNW (290°)11.1 km/h0.25 mmRainLight Rain
7:52 AM7.8 °C6.7 °C93 %1014.9 hPa14.5 kmVariable5.6 km/h0.25 mmRainLight Rain
8:24 AM7.2 °C6.1 °C93 %1015.2 hPa16.1 kmWNW (290°)13 km/h0 mmRainLight Rain
8:35 AM7.2 °C5.6 °C90 %1015.6 hPa16.1 kmWest (280°)14.8 km/h0 mmOvercast
8:42 AM7.2 °C5.6 °C90 %1015.6 hPa16.1 kmWest (270°)11.1 km/h0 mmOvercast
8:52 AM7.2 °C5.6 °C90 %1015.9 hPa16.1 kmWNW (290°)11.1 km/h0 mmOvercast
9:52 AM6.7 °C5 °C89 %1015.9 hPa16.1 kmWNW (300°)13 km/hOvercast
10:04 AM7.2 °C5 °C86 %1015.6 hPa16.1 kmWNW (300°)11.1 km/hOvercast
10:52 AM7.2 °C4.4 °C82 %1015.6 hPa16.1 kmNW (320°)9.3 km/hOvercast
11:24 AM7.2 °C4.4 °C82 %1015.6 hPa16.1 kmNW (310°)7.4 km/hOvercast
11:52 AM6.7 °C4.4 °C85 %1016.3 hPa16.1 kmNW (310°)13 km/h0 mmOvercast
12:50 PM7 °C4 °C81 %1015.6 hPa16.1 kmWest (280°)9.3 km/h0 mmRainLight Rain
12:52 PM6.7 °C3.3 °C79 %1015.6 hPa16.1 kmWest (270°)7.4 km/h0 mmRainLight Rain
1:07 PM6.1 °C2.8 °C80 %1015.9 hPa16.1 kmWest (280°)14.8 km/h0 mmOvercast
1:52 PM6.1 °C2.2 °C76 %1015.9 hPa16.1 kmWNW (290°)11.1 km/h0 mmOvercast
2:52 PM6.1 °C1.7 °C74 %1015.9 hPa16.1 kmWNW (300°)9.3 km/hOvercast
3:52 PM5.6 °C1.1 °C73 %1017.3 hPa16.1 kmWNW (290°)5.6 km/hOvercast
4:52 PM5.6 °C0.6 °C70 %1017.6 hPa16.1 kmWNW (300°)5.6 km/hOvercast
5:52 PM4.4 °C0.6 °C77 %1017.9 hPa16.1 kmNW (310°)7.4 km/h0 mmRainLight Rain
6:52 PM3.3 °C1.7 °C89 %1019 hPa14.5 kmNW (310°)9.3 km/h1.02 mmRainLight Rain
7:52 PM2.8 °C1.7 °C93 %1019.3 hPa9.7 kmWest (280°)7.4 km/h1.02 mmRainLight Rain
8:52 PM2.8 °C1.7 °C93 %1021.3 hPa9.7 kmWest (270°)11.1 km/h1.52 mmRainLight Rain
9:27 PM1.1 °C0 °C92 %1020.3 hPa4 kmNW (310°)7.4 km/h1.52 mmSnowLight Snow
9:39 PM0.6 °C0 °C96 %1020 hPa3.2 kmNNW (340°)5.6 km/h2.03 mmSnowLight Snow
9:49 PM1 °C0 °C93 %1019.3 hPa4.8 kmNNE (20°)5.6 km/h2.29 mmSnowLight Snow
9:52 PM0.6 °C0 °C96 %1020 hPa4.8 kmCalm2.29 mmSnowLight Snow
10:00 PM0.6 °C0 °C96 %1018.6 hPa4 kmENE (70°)5.6 km/h0.25 mmSnowLight Snow
10:21 PM0.6 °C0 °C96 %1019 hPa4.8 kmCalm0.51 mmSnowLight Snow
10:31 PM0 °C0 °C100 %1019.6 hPa4 kmWest (280°)5.6 km/h0.51 mmSnowLight Snow
10:41 PM0 °C-0.6 °C96 %1020.3 hPa2.9 kmWNW (290°)7.4 km/h0.76 mmSnowLight Snow
10:52 PM0.6 °C0 °C96 %1020.7 hPa1.6 kmCalm1.27 mmSnowLight Snow
11:09 PM0 °C0 °C100 %1020 hPa1.6 kmCalm0.51 mmSnowLight Snow
11:19 PM0 °C0 °C100 %1019.6 hPa1.3 kmCalm0.76 mmSnowLight Snow
11:52 PM0 °C-0.6 °C96 %1020.3 hPa0.8 kmNorth (360°)5.6 km/h1.78 mmFog-SnowSnow
Hourly data recorded from KORE, located 0 kilometers away from Greenfield, Massachusetts







STORIES FROM OUR PARTNERS